Location: Unspecified
(48.8582°N, 2.2947°E)
Time: 22:38:09
(UTC+02:00)

OTV 5 (USA 277) - Visible Passes

Search period start: 18 June 2019 00:00
Search period end: 28 June 2019 00:00
Orbit: 310 x 325 km, 54.5° (Epoch: 08 May)

Date Brightness Start Highest point End Pass type
(mag) Time Alt. Az. Time Alt. Az. Time Alt. Az.
18 Jun ? 02:08:18 34° W 02:09:14 55° NNW 02:11:58 10° NE visible
18 Jun ? 03:41:36 10° WNW 03:43:58 24° N 03:46:19 10° NE visible
19 Jun ? 00:50:36 31° E 00:50:36 31° E 00:52:22 10° ENE visible
19 Jun ? 02:21:31 10° W 02:24:06 33° NNW 02:26:40 10° NE visible
19 Jun ? 03:56:35 10° NW 03:58:56 24° N 04:01:17 10° ENE visible
20 Jun ? 01:03:08 28° WSW 01:04:24 77° NNW 01:07:09 10° ENE visible
20 Jun ? 02:36:37 10° WNW 02:39:02 26° N 02:41:26 10° NE visible
20 Jun ? 04:11:25 10° NW 04:13:54 28° NNE 04:16:22 10° ENE visible
20 Jun ? 23:42:46 12° SSW 23:44:55 31° SE 23:47:26 10° ENE visible
21 Jun ? 01:16:32 10° W 01:19:12 41° NNW 01:21:52 10° NE visible
21 Jun ? 02:51:39 10° WNW 02:54:00 24° N 02:56:20 10° ENE visible
21 Jun ? 04:26:08 10° NW 04:28:48 41° NNE 04:31:27 10° E visible
21 Jun ? 23:56:49 10° SW 23:59:34 73° SSE 00:02:20 10° ENE visible
22 Jun ? 01:31:37 10° WNW 01:34:06 29° NNW 01:36:36 10° NE visible
22 Jun ? 03:06:33 10° NW 03:08:58 26° N 03:11:22 10° ENE visible
22 Jun ? 04:40:51 10° WNW 04:43:37 77° NNE 04:46:21 10° ESE visible
23 Jun ? 00:11:36 10° WSW 00:14:20 55° NNW 00:17:04 10° NE visible
23 Jun ? 01:46:42 10° WNW 01:49:04 24° N 01:51:25 10° NE visible
23 Jun ? 03:21:19 10° NW 03:23:54 33° NNE 03:26:28 10° E visible
23 Jun ? 04:55:38 10° WNW 04:58:19 47° SW 05:00:58 10° SE visible
23 Jun ? 22:52:06 10° SW 22:54:47 48° SE 22:57:28 10° ENE visible
24 Jun ? 00:26:37 10° W 00:29:12 33° NNW 00:31:46 10° NE visible
24 Jun ? 02:01:40 10° NW 02:04:03 24° N 02:06:24 10° ENE visible
24 Jun ? 03:36:01 10° NW 03:38:46 55° NNE 03:41:29 10° ESE visible
24 Jun ? 23:06:43 10° WSW 23:09:29 77° NNW 23:12:16 10° ENE visible
25 Jun ? 00:41:43 10° WNW 00:44:08 26° N 00:46:32 10° NE visible
25 Jun ? 02:16:30 10° NW 02:18:59 29° NNE 02:21:28 10° ENE visible
25 Jun ? 03:50:46 10° WNW 03:53:32 72° SSW 03:56:16 10° SE visible
25 Jun ? 23:21:39 10° W 23:24:18 41° NNW 23:26:58 10° NE visible
26 Jun ? 00:56:45 10° WNW 00:59:06 24° N 01:01:26 10° ENE visible
26 Jun ? 02:31:13 10° NW 02:33:54 41° NNE 02:36:33 10° E visible
26 Jun ? 04:05:40 10° WNW 04:08:10 31° SW 04:10:40 10° SSE visible
26 Jun ? 23:36:43 10° WNW 23:39:12 28° NNW 23:41:41 10° NE visible
27 Jun ? 01:11:39 10° NW 01:14:04 26° N 01:16:29 10° ENE visible
27 Jun ? 02:45:55 10° WNW 02:48:42 78° NNE 02:50:15 23° ESE visible
27 Jun ? 23:51:48 10° WNW 23:54:09 24° N 23:56:31 10° NE visible
